Overview Statistics Trail Chart Weather Telemetry Raw packets
 

This is the latest recevied weather packets stored in our database for station/object PA3DZX-13. If no packets are shown the sender has not sent any weather packets the latest 10 day(s).

<< 1 2 3 4 5 6 7 >>
Time Temp. Humidity Pressure Rain* Wind** Luminosity Snow
1788553515 15.56° C 80% 1013.8 hPa 0 mm - - -
1788552614 15.56° C 81% 1013.7 hPa 0 mm - - -
1788551714 15.56° C 81% 1013.5 hPa 0 mm - - -
1788550812 15.56° C 81% 1013.3 hPa 0 mm - - -
1788549912 15.56° C 80% 1013.1 hPa 0 mm - - -
1788549012 15.56° C 79% 1012.9 hPa 0 mm - - -
1788548113 15.56° C 78% 1012.8 hPa 0 mm - - -
1788547211 16.67° C 76% 1012.3 hPa 0 mm - - -
1788546312 16.67° C 77% 1012.1 hPa 0 mm - - -
1788545411 16.67° C 79% 1011.9 hPa 0 mm - - -
1788544510 16.67° C 78% 1012 hPa 0 mm - - -
1788543610 16.67° C 81% 1011.5 hPa 0 mm - - -
1788542710 17.78° C 79% 1011.3 hPa 0 mm - - -
1788541809 17.78° C 80% 1011.2 hPa 0 mm - - -
1788540910 17.78° C 82% 1011.4 hPa 0 mm - - -
1788540009 17.78° C 84% 1011 hPa 0 mm - - -
1788539110 17.78° C 83% 1010.8 hPa 0 mm - - -
1788538234 17.78° C 85% 1011 hPa 0 mm - - -
1788537309 17.78° C 85% 1011 hPa 0 mm - - -
1788536409 17.78° C 86% 1010.8 hPa 0 mm - - -
1788535509 17.78° C 88% 1010.7 hPa 0 mm - - -
1788534608 16.67° C 91% 1010.4 hPa 0.76 mm - - -
1788533708 16.67° C 92% 1010.2 hPa 0.25 mm - - -
1788532807 16.67° C 93% 1010 hPa 0 mm - - -
1788531908 16.67° C 94% 1009.6 hPa 2.03 mm - - -

* Rain latest hour (hover to see other rain measurements)
** Current wind speed in m/s (hover to see current wind gust speed)